Content
SEND FEEDBACK

Daily
Averages
Monthly
Summary
United States of America

BRANTLEY, ALABAMA


Home > North America > United States > Alabama
Elevation: 281 feet     Latitude: 31 35N     Longitude: 086 16W

WEATHER
 
SELECT A DAY
Number of Records: 111,290;   Date Range: 1/3/95 - 11/27/14
 
SHARE

PRINT THIS DATA

[ ← Previous Day ]
WEATHER ALMANAC - JANUARY 31, 2013
[ Next Day → ]
[ °C ]   °F
Weather ElementAverageHighLow
Temperature47.2 °F57.9 °F (1:56 pm)37.9 °F (6:56 am)
Dewpoint27.1 °F33.1 °F (6:56 pm)21 °F (11:56 am)
Humidity48.9 %77 % (9:56 pm)24 % (2:56 pm)
Barometer30.20 in30.30 in (11:56 pm)30.09 in (1:56 am)
Wind Speed7.6 mph18.4 mph (1:56 pm)
Wind Gust25.3 mph (10:56 am)
Weather ElementAverage
Visibility10 mi
Wind DirectionWSW (235.2 °)

Weather ElementTotal
Precipitation---
Heating Degree Days17.1 (Base 65)
Averaged from 23 records on January 31, 2013
WEATHER CONDITIONS BREAKOUT
WIND DIRECTION BREAKOUT
WEATHER BY HOUR - JANUARY 31, 2013
[ °C ]   °F
Local TimeTemperatureDewpointHumidityBarometerVisibilityWind DirectionWind SpeedGust SpeedPrecipitationEventsConditions
1:56 AM43.0 °F28.9 °F58 %30.09 in10.0 miNNW (330°)8.1 mphClear
2:56 AM42.1 °F28.0 °F58 %30.10 in10.0 miNNW (330°)9.2 mphClear
3:56 AM42.1 °F27.0 °F55 %30.13 in10.0 miNNW (340°)13.8 mphClear
4:56 AM41.0 °F27.0 °F57 %30.11 in10.0 miNNW (340°)9.2 mphClear
5:56 AM39.0 °F28.0 °F65 %30.14 in10.0 miNW (320°)6.9 mphClear
6:56 AM37.9 °F28.0 °F68 %30.15 in10.0 miNW (320°)5.8 mphClear
7:56 AM42.1 °F28.9 °F60 %30.19 in10.0 miNNW (330°)9.2 mphClear
8:56 AM46.0 °F28.0 °F50 %30.21 in10.0 miNNW (340°)10.4 mph18.4 mphClear
9:56 AM48.9 °F25.0 °F39 %30.24 in10.0 miNorth (360°)15.0 mph21.9 mphClear
10:56 AM53.1 °F24.1 °F32 %30.25 in10.0 miNNW (330°)17.3 mph25.3 mphClear
11:56 AM54.0 °F21.0 °F28 %30.23 in10.0 miNorth (360°)12.7 mph24.2 mphClear
12:56 PM57.0 °F23.0 °F27 %30.20 in10.0 miNorth (360°)10.4 mph20.7 mphClear
1:56 PM57.9 °F23.0 °F26 %30.20 in10.0 miNorth (350°)18.4 mph23.0 mphClear
2:56 PM57.9 °F21.0 °F24 %30.19 in10.0 miNNW (340°)9.2 mphClear
3:56 PM57.9 °F21.9 °F25 %30.20 in10.0 miNorth (10°)5.8 mphClear
4:56 PM55.9 °F23.0 °F28 %30.20 in10.0 miNorth (350°)6.9 mphClear
5:56 PM48.9 °F27.0 °F43 %30.23 in10.0 miCalmClear
6:56 PM45.0 °F33.1 °F63 %30.24 in10.0 miCalmClear
7:56 PM45.0 °F32.0 °F60 %30.26 in10.0 miCalmClear
8:56 PM43.0 °F30.9 °F62 %30.26 in10.0 miCalmClear
9:56 PM39.9 °F33.1 °F77 %30.27 in10.0 miCalmClear
10:56 PM43.0 °F30.0 °F60 %30.29 in10.0 miCalmClear
11:56 PM45.0 °F32.0 °F60 %30.30 in10.0 miWNW (300°)5.8 mphClear
Hourly data recorded from K79J, located miles away from Brantley, Alabama







STORIES FROM OUR PARTNERS